Wind_Speed
28 28 28 26 26 25 25 24 14 15 16 23 24 28 32 35 38 41 45 46 51 53 50 49 48 46 45 47 47 45 44 46 45 41 40 43 37 33
25 29 29 26 26 24 23 24 24 15 14 27 27 30 33 36 39 43 45 48 50 50 50 48 47 48 48 48 50 49 49 47 44 42 43 37 34 32
28 29 29 27 24 25 25 25 25 24 13 31 32 32 32 33 36 38 43 43 44 46 49 51 49 50 50 47 46 50 50 51 46 43 45 38 37 32
29 30 28 24 26 25 25 26 24 25 22 16 36 33 31 32 35 35 36 38 41 43 44 45 46 49 47 47 43 47 48 47 47 46 47 41 38 32
30 31 26 27 25 26 28 23 24 28 27 24 24 31 34 33 32 33 35 35 32 37 42 43 43 40 40 41 43 44 46 45 45 49 42 36 31 30
28 24 25 24 27 31 28 24 26 27 26 24 24 28 30 33 30 23 22 22 27 31 34 37 42 38 39 37 45 46 45 47 54 49 46 42 37 27
28 27 27 28 30 28 25 30 29 25 24 22 18 22 24 24 19 27 26 28 27 26 30 33 32 31 33 32 37 40 46 46 40 44 38 36 29 30
30 30 27 31 30 29 31 31 29 28 27 22 20 15 25 27 29 24 26 13 14 20 19 22 28 26 27 28 30 35 46 45 43 36 33 30 28 28
28 30 31 28 31 30 35 34 32 33 32 34 27 28 30 32 32 28 27 22 14 28 18 12 20 24 28 30 32 35 37 36 34 30 29 26 27 24
30 31 31 31 30 35 38 36 35 36 37 33 33 31 35 38 35 34 36 34 34 31 22 11 15 15 20 21 26 34 31 29 28 27 27 27 25 25
31 29 29 32 32 38 39 36 37 39 36 30 33 36 34 42 40 38 26 14 12 14 13 12 5 3 4 14 21 25 25 24 23 23 24 25 26 25
26 25 30 33 39 39 41 37 30 30 30 34 35 32 31 34 32 27 24 10 10 9 14 10 8 7 2 6 15 21 20 20 20 21 23 25 25 25
24 29 30 35 38 44 40 33 31 38 36 30 33 31 30 28 26 26 26 21 13 9 16 18 6 7 3 3 5 15 20 19 18 21 21 23 23 24
30 30 31 37 42 39 37 36 37 35 27 28 27 25 28 26 27 26 24 19 16 17 25 25 7 8 4 2 3 9 13 14 17 21 21 18 20 21
31 31 35 37 36 34 34 36 32 29 27 24 23 25 26 29 30 24 16 7 5 9 4 4 7 15 7 4 4 5 9 7 16 20 19 21 21 21
24 25 34 32 29 32 31 29 26 30 29 27 27 28 28 25 22 18 10 3 4 11 17 16 18 19 10 12 13 11 11 5 17 17 18 16 16 19
31 27 28 25 28 28 28 28 29 30 27 29 28 26 24 23 18 14 9 3 1 1 6 16 17 14 16 11 8 12 10 8 17 17 13 12 14 16
27 24 23 24 25 27 27 29 29 31 30 32 28 25 21 19 16 9 6 0 2 3 5 6 5 5 6 13 11 12 8 10 15 17 12 9 7 11
21 21 22 24 26 27 28 27 29 33 33 31 27 23 21 18 14 3 2 3 4 5 6 5 4 1 2 2 3 5 10 9 15 12 11 8 4 7
18 20 23 25 28 28 29 28 33 32 30 31 27 23 20 15 6 2 2 4 5 3 2 4 6 6 3 3 3 3 6 11 8 7 5 7 9 9
20 23 25 26 28 29 29 31 32 31 32 32 24 21 18 12 5 1 6 9 8 3 1 1 6 5 6 5 3 2 2 7 7 9 5 7 5 7
24 25 26 28 29 29 30 32 31 31 30 28 22 18 14 8 2 6 9 6 4 3 3 4 2 2 4 3 1 1 1 2 6 13 14 10 4 3
26 26 28 29 30 30 32 31 30 30 29 24 19 16 11 7 8 9 10 9 8 5 2 1 1 1 2 3 3 2 2 2 2 4 8 16 13 6
Wind_Direction
325 324 322 314 310 308 304 299 297 299 295 298 298 294 289 286 279 274 268 265 265 269 271 266 265 259 250 246 242 240 240 242 241 235 222 214 212 216
327 320 317 314 313 317 317 312 307 301 300 302 300 298 295 291 287 283 275 271 269 266 264 266 267 268 266 255 245 241 241 241 240 232 217 208 210 210
324 322 314 317 317 318 317 314 310 309 304 303 301 298 297 294 289 285 285 274 269 268 264 263 263 262 263 256 251 245 239 240 238 225 211 205 205 204
320 319 312 318 315 315 315 308 307 305 300 296 300 301 296 294 288 284 280 278 274 272 268 268 267 263 265 260 258 248 244 239 230 215 207 202 202 202
318 313 311 321 315 321 314 311 323 315 310 300 299 306 303 303 302 292 284 277 272 279 276 274 268 262 266 264 261 251 246 230 217 204 195 197 197 195
327 330 327 327 323 315 314 323 326 316 313 313 306 300 299 303 304 305 300 285 287 282 284 282 277 265 260 268 265 246 234 217 204 204 193 189 184 185
328 324 320 319 319 313 319 320 319 314 311 311 303 302 302 305 305 307 297 300 280 272 267 276 270 262 263 255 245 245 224 207 205 182 179 180 185 178
324 324 322 321 321 314 314 313 310 313 308 300 300 299 298 299 297 300 301 293 292 287 248 259 265 261 257 250 247 226 215 190 179 174 170 172 177 180
322 320 317 319 321 315 314 312 311 310 302 296 291 288 290 291 292 290 289 283 283 287 271 268 254 249 255 251 241 210 187 170 165 168 165 171 176 179
317 314 313 315 319 317 315 312 310 307 302 295 288 297 303 304 295 286 283 281 278 276 260 271 256 240 232 221 193 175 167 164 167 168 168 177 182 184
312 311 313 314 316 317 315 311 307 301 300 297 307 304 301 303 297 290 281 277 277 276 240 240 203 168 180 179 175 163 166 169 167 170 176 182 185 187
311 310 314 317 318 317 317 307 297 295 303 318 317 310 306 301 303 304 296 281 278 282 228 205 155 163 143 171 159 164 157 164 171 179 185 186 184 187
316 318 315 316 318 319 316 321 313 318 317 317 309 310 308 306 304 304 298 277 271 264 275 198 165 166 108 136 130 154 165 165 176 187 187 187 190 196
317 316 313 320 320 317 320 316 315 317 312 308 309 311 310 307 309 306 304 293 279 274 275 204 179 169 146 121 137 142 144 158 175 176 181 187 194 188
315 317 324 322 321 321 320 321 321 315 310 309 312 307 307 304 303 303 297 304 24 34 27 206 176 129 104 115 131 122 119 161 169 172 175 184 185 191
313 330 331 322 322 323 322 322 318 316 316 309 309 302 308 307 296 293 285 284 10 22 61 85 119 116 85 92 122 140 142 164 168 168 172 185 198 208
331 336 331 324 325 325 323 320 318 319 318 313 309 309 310 309 298 295 273 284 50 25 43 65 76 95 99 116 109 134 136 118 165 159 160 175 197 203
336 330 322 324 323 324 320 318 318 321 317 314 308 310 310 310 304 284 270 206 106 92 75 63 61 69 77 60 111 122 122 123 146 161 162 172 190 204
325 320 317 323 322 322 315 313 317 316 311 312 309 315 311 310 304 258 251 113 85 90 59 34 17 57 80 85 27 133 133 147 157 168 184 180 173 218
316 315 318 321 321 317 314 315 315 315 314 315 314 315 312 306 292 243 130 104 102 75 74 45 43 37 118 162 144 147 181 154 158 161 176 213 242 249
323 322 321 319 317 315 312 315 314 313 314 314 315 319 320 314 323 101 122 123 116 113 109 59 40 61 77 88 74 30 141 213 222 213 199 191 179 185
324 320 320 318 316 315 315 315 314 315 315 314 324 328 334 342 36 84 91 89 84 110 112 127 113 53 44 69 149 289 282 184 201 222 215 202 158 188
319 320 318 317 318 315 315 313 313 312 314 318 330 340 354 37 77 90 87 100 118 113 104 88 67 72 194 182 184 241 313 6 65 133 190 212 201 137
Height
697 692 688 682 678 674 670 664 657 644 632 628 627 626 622 619 614 610 605 600 597 596 596 598 595 595 597 600 603 605 609 613 617 622 627 632 637 643
694 688 682 677 672 668 665 661 656 648 636 628 623 619 615 611 606 601 596 591 587 585 585 585 586 587 586 588 591 592 596 600 606 611 616 621 627 634
690 685 679 674 669 664 660 655 649 645 636 621 620 613 606 601 597 593 587 583 579 575 574 573 573 574 576 578 578 580 583 587 594 599 605 610 617 624
687 681 675 670 666 661 656 650 644 639 635 623 610 606 601 595 588 584 579 574 570 567 566 564 563 563 563 564 570 570 571 573 579 586 593 599 606 612
684 677 671 668 662 659 653 646 642 636 630 623 610 601 594 589 582 576 569 564 560 559 557 556 555 554 553 556 555 558 558 560 565 571 579 588 597 601
680 675 670 666 662 655 649 644 637 632 626 620 611 599 591 583 580 572 563 557 553 549 548 545 545 543 544 543 545 546 549 551 546 558 567 575 583 593
678 673 668 664 659 652 646 639 635 629 623 617 608 597 589 581 577 570 562 554 545 542 540 536 534 535 535 535 536 532 537 541 546 546 559 569 579 582
673 667 663 658 651 646 641 636 632 626 620 613 603 596 585 580 573 566 561 554 541 537 532 527 530 526 526 526 526 524 528 533 537 547 554 564 572 580
672 666 658 653 647 640 633 628 623 619 615 608 597 589 579 573 567 559 554 547 537 532 532 524 524 518 518 517 519 518 524 528 534 546 551 562 571 577
669 663 656 648 644 637 628 621 616 609 603 597 589 580 574 567 561 552 544 537 528 524 525 518 515 513 512 514 515 517 522 529 537 543 549 560 567 572
664 658 652 645 639 632 624 615 607 598 591 586 580 574 567 559 552 543 533 527 518 514 513 514 511 513 514 511 516 518 524 530 536 543 549 557 564 570
659 653 647 640 633 626 619 610 598 590 582 575 569 564 558 550 544 539 532 525 519 509 504 508 508 511 513 514 515 519 524 529 535 542 549 555 560 567
654 647 641 635 627 621 613 606 598 589 579 573 564 556 549 543 537 532 527 522 516 509 503 502 500 505 507 513 516 520 523 529 534 542 548 552 558 563
651 644 637 630 624 616 609 602 593 585 577 569 560 551 544 538 532 527 521 516 511 505 498 496 495 496 500 507 513 519 523 528 533 538 544 550 556 561
647 640 633 627 620 612 606 598 590 583 574 565 556 548 542 534 527 522 518 514 509 503 496 493 493 494 495 500 507 516 523 531 533 536 542 548 553 558
640 635 631 624 618 612 602 595 588 581 572 563 554 544 537 530 523 519 515 513 510 506 502 498 497 497 501 504 508 517 523 527 532 536 542 548 554 559
637 632 627 621 614 607 600 593 585 577 568 559 550 541 533 526 520 516 513 511 510 510 508 505 505 505 506 509 514 519 524 527 532 536 543 549 553 556
636 632 626 620 614 606 598 589 580 572 564 555 545 537 530 523 517 514 512 511 511 512 511 511 511 510 511 516 517 521 525 528 532 538 544 548 551 553
636 631 625 619 612 605 596 588 578 570 561 552 542 534 528 521 517 514 513 512 513 514 515 515 515 515 516 522 523 523 525 529 534 539 541 544 547 551
635 629 623 617 610 602 593 585 575 566 557 548 539 531 525 520 516 515 514 514 517 519 521 521 519 518 520 523 524 526 528 530 533 536 539 543 546 549
631 627 622 615 607 599 591 582 573 564 555 546 536 530 524 520 517 515 515 517 519 522 524 523 523 522 521 522 524 526 527 529 532 534 537 542 545 547
630 625 618 611 604 596 587 578 569 560 552 543 536 530 525 522 519 518 518 519 521 523 524 524 524 524 523 524 528 529 529 530 532 533 536 539 541 543
628 622 615 608 600 592 584 575 567 558 550 542 536 531 527 525 523 522 521 523 525 525 525 525 525 526 527 527 528 527 527 527 529 530 532 535 539 541